Погода в Сунтаре

Погода в Сунтаре : погода сейчас, прогноз погоды и архив. Всё, что Вы хотите узнать о погоде в Сунтаре!

Хотите узнать прогноз погоды в Сунтаре? Тогда Вам сюда: Погода в Сунтаре

Поиск расширенной информации на нашем сайте:

Другие новости

Новости СМИ2

Главная страница сайта

Новости сайта

03.07.2017

Напоминаем, что на нашем специализированном сайте Метеоцентр.Азия вы можете получить высокодетализированные автоматические прогнозы погоды по пунктам России, СНГ и мира в авиационном формате (включающие направление и скорость ветра, видимость, явления погоды, количество и форму облачности, нижнюю и верхнюю границу облачности).

Рекомендуем: офисные блоки на выгодных условиях снять офис в бц K2 в Румянцево описание помещений на сайте

Погода в Сунтаре - сегодня

Время (UTC), дата Ветер
(°,м/с) 
Видим.   Явления Облачность Т
(°С)
Тd
(°С)
f(%) Тe
(°С)
Pmin
(гПа)
dP
(гПа)
Po
(мм)
O2
(г/м3)
Тmin Tmax R s Состояние
почвы
09 18.07.17 350 (С) 20000 м    1/1 1000 м 
[Cu hum]
+23.3 +4.3 29 +23  1007.6  -0.1  744  276           
12 18.07.17 310 (СЗ) 20000 м    1/1 1000 м 
[Cu hum]
+22.6 +5.2 32 +23  1007.7  744  276    +24       
15 18.07.17 тихо ()   20000 м    1/0 верхняя 
[Ci fib]
+13.6 +7 64 +14  1008.5  0.3  744  284           
18 18.07.17 тихо ()   20000 м    ясно 
+9.1 +7.4 89 +9  1008.8  0.1  744  289           
21 18.07.17 тихо ()   20000 м    4/0 верхняя 
[Ci fib]
+7.6 +6.7 94 +8  1009.5  0.5  745  291           
00 19.07.17 тихо ()   20000 м    3/0 верхняя 
[Ci fib]
+16.6 +8.4 58 +17  1008.6  -0.3  744  281  +7.4        сухая 
03 19.07.17 тихо ()   20000 м    3/0 верхняя 
[Ci fib]
+24.5 +4.5 27 +25  1007.4  -0.8  744  274           
06 19.07.17 290 (З) 20000 м    8/8 1000 м 
[Cu med, cong]
+25.4 +4.9 27 +25  1005.7  -1.6  743  273           
09 19.07.17 340 (С) 20000 м    8/5 600 м кучево-дожд., верхняя 
[Cb cap|Ci fib]
+27.2 +6 26 +27  1004.5  -1.1  742  271           
12 19.07.17 340 (С) 3{12}  20000 м  в посл. час ливневой дождь  9/5 600 м кучево-дожд., средняя 
[Cb cap|Ac trans]
+18.4 +12.5 68 +24  1005.8  0.9  742  278    +28  0.4     
15 19.07.17 240 (ЮЗ) 20000 м    3/1 1000 м средняя 
[Sc|Ac trans]
+14.5 +12.1 85 +20  1006.2  742  282           
18 19.07.17 340 (С) 20000 м    10/0 средняя 
[Ac trans]
+14.4 +12 85 +20  1006.1  -0.1  742  282           
21 19.07.17 340 (С) 20000 м    8/4 600 м кучево-дожд., средняя 
[Cb cap|Ac trans]
+15.2 +11.5 79 +19  1007.1  1.1  743  281           
00 20.07.17 340 (С) 20000 м    3/0 средняя 
[Ac trans]
+17.5 +11.9 70 +22  1007.7  0.8  744  279  +14.3        влажная 
03 20.07.17 350 (С) 20000 м    6/6 1000 м 
[Cu med, cong]
+20.1   1008.1  0.5  744             
06 20.07.17 350 (С) 20000 м    8/6 1000 м верхняя 
[Cu med, cong|Ci fib]
+21.7 +4.6 33 +22  1007.9  -0.1  744  277           
09 20.07.17 340 (С) 20000 м    10/6 1000 м кучево-дожд., верхняя 
[Cb cap|Ci fib]
+20.4 +6.9 42 +20  1008.1  0.1  744  278           
12 20.07.17 320 (СЗ) 20000 м    10/4 1000 м кучево-дожд., средняя, верхняя 
[Cb cap|Ac trans|Ci fib]
+17.3 +6.1 48 +19  1009.4  1.1  745  281    +22.6       
15 20.07.17 020 (С) 20000 м    9/4 1000 м средняя 
[Sc|Ac trans]
+15.4 +3.7 46 +16  1011.3  1.8  746  284           
18 20.07.17 340 (С) 20000 м    9/4 600 м кучево-дожд., средняя 
[Cb cap|Ac trans]
+11.4 +3.2 57 +11  1013.7  2.1  748  289           
21 20.07.17 340 (С) 20000 м    6/0 средняя, верхняя 
[Ac trans|Ci fib]
+7.9 +2.1 67 +8  1015.1  1.1  749  293           
00 21.07.17 020 (С) 20000 м    3/0 верхняя 
[Ci fib]
+10.6 +0.6 50 +11  1015.4  0.4  749  290  +7.4        сухая 
03 21.07.17 320 (СЗ) 20000 м    4/0 верхняя 
[Ci fib]
+13.6 +1.3 43 +15  1015.1  749  287           
06 21.07.17 340 (С) 20000 м    4/0 верхняя 
[Ci fib]
+16.2 +1.2 36 +18  1014.2  -0.8  748  284           
09 21.07.17 330 (СЗ) 20000 м    3/0 верхняя 
[Ci fib]
+17.8 +1.9 34 +19  1013.7  -0.4  748  283           
Время (UTC), дата Ветер
(°,м/с) 
Видим.   Явления Облачность Т
(°С)
Тd
(°С)
f(%) Тe
(°С)
Pmin
(гПа)
dP
(гПа)
Po
(мм)
O2
(г/м3)
Тmin Tmax R s Состояние
почвы

Для получения пояснительной информации подведите курсор к названию столбца.

ПОГОДА в Сунтаре - архив

Всё, что Вы хотите узнать о погоде в Сунтаре - удобно и подробно!

Выберите нужную дату (начиная с 1 января 2015* года) и нажмите кнопку "Найти".
Будут отображены архивные сводки погоды по пункту Сунтар, начиная с указанной даты.


Отображать данные в формате CSV (для использования в таблицах Excel)


Внимание! Наш архив погоды предназначен исключительно для личного некоммерческого использования в познавательных целях. Если Вам необходимы официальные справки о состоянии погоды (для производственных, юридических, коммерческих и т.п. целей), обращайтесь в органы Росгидромета.

*Примечание: данная дата относится к архиву по метеостанциям СССР (Россия, СНГ, Балтия).
Архив по метеостанциям Зарубежной Европы и Азии (кроме Китая) хранится 10 дней, по другим регионам земного шара (Китай, Африка, Америка, Австралия, Океания) - 1 день.

Сунтар - район местоположения метеостанции


Название, широта, долгота, высота метеостанции:
Сунтар 62.2°ш. 117.6°д. 133 м над ур. моря [Российская Федерация]

Дополнительная информация

В oтличие oт бoльшинства пoгoдных сайтoв мы публикуем пoдрoбную метеoинфoрмацию в детальнoм прoфессиoнальнoм фoрмате.

Характеристики температуры и влажнoсти вoздуха измеряются на высoте 2 м в тени вдали oт зданий и деревьев.
Скoрoсть ветра измеряется на высoте 10 м (на урoвне рoста челoвека скoрoсть ветра ниже в 1.5-2 раза). Если метеoстанция нахoдится в гoрoде или в лесу, тo скoрoсть ветра занижена на 2-4 м/с пo сравнению с oткрытым местoм. Скoрoсть ветра над акватoриями крупных рек и oзёр, а также на вершинах хoлмoв на 2-5 м/с выше, чем в oбычных услoвиях.
Атмoсфернoе давление в разных тoчках местнoсти мoжет значительнo oтличаться oт давления на метеoстанции, в зависимoсти oт услoвий рельефа (при пoдъёме на 10 м давление пoнижается примернo на 1 мм рт.ст.).